Location: Newark
(34.1333°N, 7.9667°W)
Time: 05:01:44
(UTC+00:00)

Vanguard 2 Rocket - Visible Passes

Search period start: 29 July 2021 00:00
Search period end: 08 August 2021 00:00
Orbit: 555 x 3325 km, 32.9° (Epoch: 28 July)

Date Brightness Start Highest point End Pass type
(mag) Time Alt. Az. Time Alt. Az. Time Alt. Az.
02 Aug 8.8 04:50:22 10° S 04:52:50 13° SSE 04:54:57 10° SE visible
04 Aug 8.2 05:01:53 10° SSW 05:06:57 23° SSE 05:10:40 10° ESE visible
05 Aug 8.7 04:04:18 15° S 04:07:15 18° SSE 04:11:04 10° ESE visible
06 Aug 9.2 03:07:56 14° SSE 03:07:56 14° SSE 03:10:54 10° SE visible
06 Aug 7.6 05:14:45 10° SW 05:21:03 37° SSE 05:25:17 10° E visible
07 Aug 8.1 04:17:19 19° SSW 04:21:24 30° SSE 04:26:06 10° E visible
